Preview of NWS' New Version of Forecast
This preview is not operational and should not be used for support decisions.

Regional Weather Roundup (RWR)

Issued by National Weather Service (NWS)

                            
000
ASUS44 KJAN 180710
RWRMS 

MISSISSIPPI HOURLY WEATHER ROUNDUP
NATIONAL WEATHER SERVICE JACKSON MS
200 AM CDT TUE JUN 18 2019

NOTE: "FAIR: INDICATES FEW OR NO CLOUDS BELOW 12,000 FEET WITH NO
SIGNIFICANT WEATHER AND/OR OBSTRUCTIONS TO VISIBILITY.

MSZ001>002-007>008-010>013-018>021-025>028-034>036-180800-
NORTHWEST MISSISSIPPI
  
CITY           SKY/WX    TMP DP  RH WIND       PRES   REMARKS
BATESVILLE       N/A     70  70 100 CALM      29.93S                  
CLARKSDALE     MOCLDY    72  72 100 SE5       29.92F                  
CLEVELAND      FAIR      71  71 100 S3        29.92S                  
GREENWOOD      FAIR      73  70  90 S7        29.92F                  
GREENVILLE     FAIR      71  70  96 CALM      29.91F                  
OLIVE BRANCH     N/A     70 N/A N/A CALM      29.93F                  
OXFORD         FAIR      68  68 100 SE5       29.95F                  
TUNICA           N/A     70  68  94 S5        29.93S                  
WINONA         PTSUNNY   70  70 100 CALM      29.94F                  
$$

MSZ003>006-009-014>017-022>024-029>033-037>039-180800-
NORTHEAST MISSISSIPPI
  
CITY           SKY/WX    TMP DP  RH WIND       PRES   REMARKS
ABERDEEN       CLOUDY    70  70 100 CALM      29.96S                  
COLUMBUS AFB   MOCLDY    73  68  83 CALM      29.96F                  
CORINTH        FAIR      72  72 100 VRB5      29.94F                  
GOLDN TRIANGLE FAIR      72  70  93 S3        29.95F                  
STARKVILLE     FAIR      70  68  94 CALM      29.96S                  
TUPELO         MOCLDY    73  70  90 SE5       29.95S                  
$$

MSZ040-058-180800-
CENTRAL MISSISSIPPI
  
CITY           SKY/WX    TMP DP  RH WIND       PRES   REMARKS
JACKSON INTL   LGT RAIN  74  71  91 SE5       29.93F                  
JACKSON HAWKNS LGT RAIN  74  74 100 SE6       29.94S                  
MADISON        PTSUNNY   72  72 100 CALM      29.93F                  
MERIDIAN KEY   FAIR      75  71  87 CALM      29.94F                  
MERIDIAN NAS   FAIR      73  70  90 CALM      29.94F                  
RAYMOND        FAIR      75  75 100 CALM      29.93S                  
VICKSBURG VKS  CLOUDY    75  75 100 CALM      29.92F                  
$$

MSZ059>079-180800-
SOUTH MISSISSIPPI
  
CITY           SKY/WX    TMP DP  RH WIND       PRES   REMARKS
BROOKHAVEN     CLOUDY    73  72  94 CALM      29.94F                  
HATTIESBURG    FAIR      75  72  90 SE5       29.94F                  
LAUREL         SUNNY     75  72  92 S5        29.94F                  
MCCOMB         CLOUDY    74  72  93 S7        29.94S                  
NATCHEZ        MOCLDY    73  71  93 SE5       29.93S                  
PINE BELT      FAIR      75  73  93 CALM      29.95F                  
$$

MSZ080>082-180800-
COASTAL MISSISSIPPI
  
CITY           SKY/WX    TMP DP  RH WIND       PRES   REMARKS
BILOXI           N/A    N/A N/A N/A MISG        N/A                   
PASCAGOULA     LGT RAIN  75  71  87 CALM      29.95F                  
GULFPORT       FAIR      78  73  84 S7        29.94S                  
$$

LAZ007>009-015>016-023>026-180800-
NORTHEAST LOUISIANA
  
CITY           SKY/WX    TMP DP  RH WIND       PRES   REMARKS
BASTROP        FAIR      72  71  98 CALM      29.92S                  
TALLULAH/VBURG MOCLDY    74  73  97 CALM      29.92F                  
VIDALIA        CLOUDY    75  72  91 SE5       29.91F                  
$$